COSMOS 2425 (716) (29670 NORAD) Tracking and Keplerian Element Data

This shows tracking and keplerian element data for the satellite.

Feedback or suggestion? Click here.




ElementValue
Catalog29670
NameCOSMOS 2425 (716)
Epoch Orbit9321
Epoch Day351.3484088
Epoch Year2018
RAAN286.3424
Inclination65.1922
Eccentricity0.0022593
Argument of Perigee341.6653
Mean Anonmoly206.9376
Mean Motion2.13104906
Decay Rate-2.5E-07
L11 29670U 06062A 18351.34840880 -.00000025 00000-0 10000-3 0 9993
L22 29670 65.1922 286.3424 0022593 341.6653 206.9376 2.13104906 93213

Live tracking and technical data element details for COSMOS 2425 (716) (NORAD 29670). COSMOS 2425 (716) can be tracked NOW for your location showing map with azimuth and elevation plus other details from your city location.

Track the satellite on the map from your city or location and see movement details for azimuth, elevation, latitude, longitude, range, height, and movement on the map or in text.







IsCatalogInMostPopularTable: catalog: 29670, numindb: 68
Update: records affected: 1



GetName: 29670 COSMOS 2425 (716)

Hit Count: updated at: Tue, 18 Dec 2018 21:13:01 GMT